User: anonymous   Login
Location: Unspecified
(0.0000°N, 0.0000°E)
Time: 13:49:16
(UTC+00:00)
Language:

Orbcomm D8 (FM36) - Orbit

View from above orbital plane
View from above orbital plane
View from above satellite
View from above satellite

Ground track
Ground track

The orbit data is extracted from the following two-line orbital elements,

1 25984U 99065E   17114.25750107 +.00000259 +00000-0 +14631-3 0  9992
2 25984 045.0389 053.7113 0003682 270.7484 089.2941 14.32469241907498
Epoch (UTC): 24 April 2017 06:10:48
Eccentricity: 0.0003682
inclination: 45.0389°
perigee height: 781 km
apogee height: 786 km
right ascension of ascending node: 53.7113°
argument of perigee: 270.7484°
revolutions per day: 14.32469241
mean anomaly at epoch: 89.2941°
orbit number at epoch: 90749

The dashed part of the orbit path shows where the satellite is in the earth's shadow,  

DLR